Location: Croissy-Beaubourg
(48.8283°N, 2.6696°E)
Time: 22:18:42
(UTC+00:00)

Cosmos 2082 - Pass Details

Date: 17 August 2022
Orbit: 832 x 856 km, 71.0° (Epoch: 28 September)

Event Time Altitude Azimuth Distance (km) Brightness Sun altitude
Rises 20:15:41 0° 258° (WSW) 3,376 7.5 -11.6°
Reaches altitude 10° 20:18:49 10° 276° (W) 2,447 7.1 -12.0°
Maximum altitude 20:22:48 19° 321° (NW) 1,874 6.6 -12.5°
Drops below altitude 10° 20:26:49 10° 7° (N) 2,463 6.6 -13.0°
Sets 20:30:01 0° 24° (NNE) 3,406 7.0 -13.5°
